TimeMDT,TemperatureF,Dew PointF,Humidity,Sea Level PressureIn,VisibilityMPH,Wind Direction,Wind SpeedMPH,Gust SpeedMPH,PrecipitationIn,Events,Conditions,WindDirDegrees,DateUTC
12:56 AM,30.0,26.1,85,30.18,10.0,SE,5.8,-,N/A,,Clear,130,2012-11-03 06:56:00
1:56 AM,30.9,27.0,85,30.17,10.0,South,3.5,-,N/A,,Clear,170,2012-11-03 07:56:00
2:56 AM,30.0,26.1,85,30.17,10.0,South,4.6,-,N/A,,Clear,170,2012-11-03 08:56:00
3:56 AM,27.0,25.0,92,30.19,10.0,Calm,Calm,-,N/A,,Clear,0,2012-11-03 09:56:00
4:56 AM,28.0,24.1,85,30.19,10.0,SSE,5.8,-,N/A,,Clear,160,2012-11-03 10:56:00
5:56 AM,27.0,23.0,85,30.21,10.0,South,5.8,-,N/A,,Clear,170,2012-11-03 11:56:00
6:56 AM,23.0,19.9,88,30.24,10.0,Calm,Calm,-,N/A,,Clear,0,2012-11-03 12:56:00
7:56 AM,24.1,21.0,88,30.25,10.0,Calm,Calm,-,N/A,,Scattered Clouds,0,2012-11-03 13:56:00
8:56 AM,28.9,25.0,85,30.27,10.0,Calm,Calm,-,N/A,,Overcast,0,2012-11-03 14:56:00
9:56 AM,32.0,28.9,88,30.25,10.0,Calm,Calm,-,N/A,,Overcast,0,2012-11-03 15:56:00
10:56 AM,37.9,32.0,79,30.26,10.0,Calm,Calm,-,N/A,,Clear,0,2012-11-03 16:56:00
11:56 AM,45.0,32.0,60,30.22,10.0,Calm,Calm,-,N/A,,Overcast,0,2012-11-03 17:56:00
12:56 PM,51.1,30.9,46,30.19,10.0,Calm,Calm,-,N/A,,Mostly Cloudy,0,2012-11-03 18:56:00
1:56 PM,53.1,28.9,40,30.15,10.0,NNW,3.5,-,N/A,,Clear,330,2012-11-03 19:56:00
2:56 PM,55.0,28.0,35,30.13,10.0,Calm,Calm,-,N/A,,Mostly Cloudy,0,2012-11-03 20:56:00
3:56 PM,55.0,27.0,34,30.14,10.0,Calm,Calm,-,N/A,,Clear,0,2012-11-03 21:56:00
4:56 PM,53.1,28.0,38,30.13,10.0,North,3.5,-,N/A,,Clear,10,2012-11-03 22:56:00
5:56 PM,50.0,28.0,43,30.14,10.0,WSW,3.5,-,N/A,,Clear,240,2012-11-03 23:56:00
6:56 PM,48.0,28.0,46,30.17,10.0,Calm,Calm,-,N/A,,Clear,0,2012-11-04 00:56:00
7:56 PM,44.1,32.0,63,30.19,10.0,SSE,6.9,-,N/A,,Overcast,160,2012-11-04 01:56:00
8:56 PM,44.1,33.1,65,30.18,10.0,Calm,Calm,-,N/A,,Overcast,0,2012-11-04 02:56:00
9:56 PM,44.1,33.1,65,30.19,10.0,Calm,Calm,-,N/A,,Overcast,0,2012-11-04 03:56:00
10:56 PM,46.9,30.0,52,30.15,10.0,Calm,Calm,-,N/A,,Scattered Clouds,0,2012-11-04 04:56:00
11:56 PM,43.0,30.9,62,30.16,10.0,Calm,Calm,-,N/A,,Partly Cloudy,0,2012-11-04 05:56:00